Flag for Saudi Arabia Weather past 2 weeks in Riyadh, Saudi Arabia

Now
84 °F

Sunny.


Feels Like: 82 °F
Forecast: 69 / 85 °F
Wind: 12 mph from Northeast

Location: Riyadh Airport

Current Time: Apr 18, 2015 at 1:01:32 PM

Latest Report: Apr 18, 2015 at 12:00 PM


Visibility: 5 mi

Pressure: 30.07 "Hg

Humidity: 22%

Dew point: 41 °F

Location of RiyadhLocation

Historic Weather in Riyadh — Graph

°F

Riyadh temperature yesterday

Maximum temperature yesterday: 97 °F (at 4:00 PM)
Minimum temperature yesterday: 75 °F (at 5:00 AM)
Average temperature yesterday: 88 °F

Past Weeks' High & Low Weather Summary

 TemperatureHumidityPressure
High104 °F (Apr 10, 3:00 PM)41% (Apr 8, 5:00 AM)30.21 "Hg (Apr 8, 5:00 AM)
Low64 °F (Apr 14, 5:00 AM)9% (Apr 12, 11:00 PM)29.80 "Hg (Apr 4, 9:00 PM)
Average84 °F20%29.99 "Hg
* Reported Apr 3 1:00 PM — Apr 18 12:00 Noon, Riyadh, Weather by CustomWeather, © 2015

Note: Actual official high and low records may vary slightly from our data, if they occured in-between our weather recording intervals... More about our weather records

Advertising

Riyadh weather history for previous 24 hours

 ConditionsComfort  
Time TempWeatherWind HumidityBarometerVisibility
12:00 PM
Sat, Apr 18
84 °FSunny.12 mph22%30.07 "Hg5 mi
11:00 AM82 °FSunny.14 mph21%30.07 "Hg5 mi
10:00 AM81 °FSunny.14 mph23%30.09 "Hg5 mi
9:00 AM77 °FSunny.14 mph24%30.09 "Hg5 mi
7:00 AM70 °FSunny.14 mph27%30.07 "Hg5 mi
5:00 AM70 °FClear.13 mph29%30.07 "Hg4 mi
4:00 AM72 °FClear.13 mph25%30.04 "Hg4 mi
3:00 AM73 °FClear.15 mph23%30.01 "Hg4 mi
11:00 PM
Fri, Apr 17
81 °FClear.22 mph26%30.04 "Hg1 mi
10:00 PM82 °FClear.17 mph25%30.04 "Hg1 mi
9:00 PM88 °FClear.5 mph18%30.01 "Hg5 mi
8:00 PM90 °FClear.6 mph17%30.01 "Hg5 mi
7:00 PM91 °FClear.7 mph16%29.98 "Hg4 mi
6:00 PM93 °FSunny.10 mph15%29.98 "Hg4 mi
5:00 PM95 °FSunny.14 mph14%29.98 "Hg4 mi
4:00 PM97 °FSunny.16 mph13%29.98 "Hg4 mi
2:00 PM95 °FSunny.6 mph15%30.04 "Hg2 mi
Weather by CustomWeather, © 2015

See weather overviewHow to use our weather pages